Погода в Курилихе

Россия / Ивановская область     56°46′41″N   40°51′17″E
темп.,
°C
ветер,
м/с
пор.,
м/с
влажн.,
%
обл.,
%
осадки,
мм/ч
давл.,
гПа
погр.,
м
7 мая, пт
пт700:00+9юз4109197 0.5 1007913
03:00+7ююз2791100 0.5 1008298
06:00+7юз3890100 0.0 1009475
09:00+9зюз4666100 0.0 1010960
12:00+12зюз574499 0.1 10102328
15:00+12зюз474584 0.1 10121920
18:00+13юз36455 0.0 10121423
21:00+7ююз267317 0.0 101496
8 мая, сб
сб800:00+6ю31074100 0.0 1014214
03:00+5ююв31177100 0.0 1014225
06:00+7ююв41366100 0.0 1013471
09:00+11ююв51258100 0.0 10111032
12:00+12ююв61356100 0.0 10091824
15:00+10ююв61579100 2.7 10061459
18:00+9ююв71691100 3.4 10041159
21:00+10ююв61396100 4.6 1002956
9 мая, вс
вс900:00+9ююз51192100 0.6 1003778
03:00+6юз41091100 0.6 1006920
06:00+5зюз61090100 0.1 10091041
09:00+5зюз51084100 0.2 10121182
12:00+8з586599 0.1 10151223
15:00+9зсз565999 0.1 10181422
18:00+8з256654 0.0 1020690
21:00+4зюз22865 0.0 102223
10 мая, пн
пн1000:00+3зсз22860 0.0 102533
03:00+2зсз23905 0.0 102746
06:00+4з24785 0.0 1029105
09:00+11зюз23465 0.0 1029631
12:00+14зюз343711 0.0 10291720
15:00+15зюз45385 0.0 10291860
18:00+14юз24546 0.0 1029577
21:00+8юз12805 0.0 103111
11 мая, вт
вт1100:00+7ююз228456 0.0 103124
03:00+6юз2287100 0.0 103227
06:00+8ююз247860 0.0 1032105
09:00+15ююз2456100 0.0 1033570
12:00+18юз3349100 0.0 10321175
15:00+19юз224834 0.0 10311335
18:00+18юз125986 0.0 1030307
21:00+12ю117839 0.0 103010